Almeria, Spain

10:07 AM CEST on August 23, 2017 (GMT +0200)
Almeria

Weather History for LEAM - August, 2017

Change the Weather History Date:

Sunday, August 13, 2017

  Actual Average Record
Temperature  
Mean Temperature 80 °F -  
Max Temperature 91 °F 80 °F 95 °F (2013)
Min Temperature 70 °F 68 °F 68 °F (2011)
Cooling Degree Days 16    
Growing Degree Days 30 (Base 50)    
Moisture  
Dew Point 62 °F    
Average Humidity 51    
Maximum Humidity 69    
Minimum Humidity 22    
Precipitation  
Precipitation 0.00 in 0.01 in - ()
Sea Level Pressure  
Sea Level Pressure 30.01 in    
Wind  
Wind Speed 13 mph ()    
Max Wind Speed 28 mph    
Max Gust Speed 37 mph    
Visibility 6.2 miles    
Events      
Averages and records for this station are not official NWS values.
T = Trace of Precipitation, MM = Missing Value Source: Averaged Metar Reports

Daily Weather History Graph

Daily Weather History Graph

Search for Another Location

Airport or City:

Trip Planner

Search our weather history database for the weather conditions in past years. The results will help you decide how hot, cold, wet, or windy it might be!

Date:

Astronomy

Aug. 13, 2017 Rise Set
Actual Time 7:24 AM CEST 9:03 PM CEST
Civil Twilight 6:57 AM CEST 9:30 PM CEST
Nautical Twilight 6:23 AM CEST 10:04 PM CEST
Astronomical Twilight 5:48 AM CEST 10:39 PM CEST
Moon 12:00 AM CEST (8/13) 1:00 PM CEST (8/13)
Length of Visible Light 14h 33m
Length of Day
13h 38m
Waning Gibbous, 68% of the Moon is Illuminated
Aug 13
Waning Gibbous
Aug 15
Last Quarter
Aug 21
New
Aug 29
First Quarter
Sep 6
Full

Hourly Weather History & Observations

Time (CEST) Temp. Heat Index Dew Point Humidity Pressure Visibility Wind Dir Wind Speed Gust Speed Precip Events Conditions
12:00 AM 77 °F - 63 °F 53% 30.07 in - ENE 17.3 mph - -  
12:00 AM 77.0 °F - 62.6 °F 61% 30.06 in 6.2 mi ENE 16.1 mph - N/A   Unknown
12:30 AM 77.0 °F - 64.4 °F 65% 30.06 in 6.2 mi ENE 16.1 mph - N/A   Unknown
1:00 AM 77.0 °F - 64.4 °F 65% 30.06 in 6.2 mi East 17.3 mph - N/A   Unknown
1:30 AM 77.0 °F - 64.4 °F 65% 30.06 in 6.2 mi NE 11.5 mph - N/A   Unknown
2:00 AM 76 °F - 61 °F 49% 30.07 in - NE 4.6 mph - -  
2:00 AM 77.0 °F - 60.8 °F 57% 30.06 in 6.2 mi NE 3.5 mph - N/A   Unknown
2:30 AM 75.2 °F - 62.6 °F 65% 30.06 in 6.2 mi Variable 1.2 mph - N/A   Unknown
3:00 AM 76 °F - 62 °F 53% 30.06 in - North 3.5 mph - -  
3:00 AM 75.2 °F - 62.6 °F 65% 30.04 in 6.2 mi Variable 2.3 mph - N/A   Unknown
3:30 AM 75.2 °F - 62.6 °F 65% 30.04 in 6.2 mi NW 10.4 mph - N/A   Unknown
4:00 AM 76 °F - 63 °F 55% 30.04 in - NW 12.7 mph - -  
4:00 AM 75.2 °F - 62.6 °F 65% 30.04 in 6.2 mi NW 10.4 mph - N/A   Unknown
4:30 AM 75.2 °F - 60.8 °F 61% 30.04 in 6.2 mi NNW 6.9 mph - N/A   Unknown
5:00 AM 76 °F - 60 °F 49% 30.03 in 31 mi NW 6.9 mph - -   Scattered Clouds
5:00 AM 75.2 °F - 60.8 °F 61% 30.04 in 6.2 mi NW 5.8 mph - N/A   Partly Cloudy
5:30 AM 73.4 °F - 60.8 °F 65% 30.01 in 6.2 mi East 3.5 mph - N/A   Partly Cloudy
6:00 AM 73 °F - 60 °F 55% 30.03 in - ENE 3.5 mph - -  
6:00 AM 73.4 °F - 60.8 °F 65% 30.04 in 6.2 mi ENE 3.5 mph - N/A   Partly Cloudy
6:30 AM 73.4 °F - 60.8 °F 65% 30.04 in 6.2 mi Variable 1.2 mph - N/A   Partly Cloudy
7:00 AM 71.6 °F - 59.0 °F 64% 30.04 in 6.2 mi Variable 2.3 mph - N/A   Partly Cloudy
7:30 AM 71.6 °F - 59.0 °F 64% 30.04 in 6.2 mi Variable 1.2 mph - N/A   Partly Cloudy
8:00 AM 73 °F - 58 °F 49% 30.04 in 31 mi NNE 2.3 mph - -   Scattered Clouds
8:00 AM 73.4 °F - 59.0 °F 61% 30.04 in 6.2 mi Variable 1.2 mph - N/A   Partly Cloudy
9:00 AM 79 °F - 57 °F 36% 30.04 in - NE 16.1 mph - -  
9:00 AM 78.8 °F - 59.0 °F 51% 30.04 in 6.2 mi NNE 13.8 mph - N/A   Partly Cloudy
9:30 AM 80.6 °F 80.8 °F 57.2 °F 45% 30.04 in 6.2 mi Variable 6.9 mph 18.4 mph N/A   Partly Cloudy
10:00 AM 80.6 °F 80.3 °F 53.6 °F 39% 30.04 in 6.2 mi Variable 2.3 mph - N/A   Partly Cloudy
10:30 AM 84.2 °F 84.4 °F 60.8 °F 45% 30.04 in 6.2 mi Variable 8.1 mph 19.6 mph N/A   Partly Cloudy
11:00 AM 85 °F - 62 °F 36% 30.05 in 31 mi East 18.4 mph - -   Scattered Clouds
11:00 AM 84.2 °F 84.4 °F 60.8 °F 45% 30.04 in 6.2 mi East 18.4 mph - N/A   Partly Cloudy
11:30 AM 84.2 °F 84.4 °F 60.8 °F 45% 30.04 in 6.2 mi East 19.6 mph - N/A   Partly Cloudy
12:00 PM 86.0 °F 85.4 °F 59.0 °F 40% 30.04 in 6.2 mi East 21.9 mph - N/A   Partly Cloudy
12:30 PM 86.0 °F 86.1 °F 60.8 °F 43% 30.04 in 6.2 mi ENE 20.7 mph - N/A   Partly Cloudy
1:00 PM 89 °F - 60 °F 28% 30.02 in - ENE 19.6 mph - -  
1:00 PM 87.8 °F 87.1 °F 59.0 °F 38% 30.01 in 6.2 mi ENE 18.4 mph - N/A   Partly Cloudy
1:30 PM 87.8 °F 87.1 °F 59.0 °F 38% 30.01 in 6.2 mi ENE 20.7 mph - N/A   Partly Cloudy
2:00 PM 91 °F - 57 °F 22% 30.01 in 31 mi ENE 21.9 mph - -   Scattered Clouds
2:00 PM 89.6 °F 88.1 °F 57.2 °F 33% 30.01 in 6.2 mi ENE 20.7 mph - N/A   Partly Cloudy
2:30 PM 89.6 °F 88.9 °F 59.0 °F 36% 30.01 in 6.2 mi East 20.7 mph - N/A   Partly Cloudy
3:00 PM 89.6 °F 88.9 °F 59.0 °F 36% 29.98 in 6.2 mi East 21.9 mph - N/A   Partly Cloudy
3:30 PM 89.6 °F 90.1 °F 62.6 °F 40% 29.98 in 6.2 mi East 23.0 mph - N/A   Partly Cloudy
4:00 PM 91 °F - 61 °F 27% 29.96 in - ENE 25.3 mph - -  
4:00 PM 89.6 °F 89.5 °F 60.8 °F 38% 29.95 in - East 24.2 mph - N/A   Clear
4:30 PM 89.6 °F 89.5 °F 60.8 °F 38% 29.95 in - ENE 24.2 mph - N/A   Clear
5:00 PM 90 °F - 62 °F 29% 29.94 in 28 mi East 27.6 mph - -   Scattered Clouds
5:00 PM 89.6 °F 90.1 °F 62.6 °F 40% 29.95 in - ENE 24.2 mph - N/A   Clear
5:30 PM 89.6 °F 90.1 °F 62.6 °F 40% 29.95 in - East 23.0 mph - N/A   Clear
6:00 PM 89 °F - 64 °F 34% 29.94 in - East 23.0 mph - -  
6:00 PM 87.8 °F 89.4 °F 64.4 °F 46% 29.95 in 6.2 mi East 23.0 mph - N/A   Partly Cloudy
6:30 PM 86.0 °F 87.3 °F 64.4 °F 48% 29.92 in 6.2 mi East 21.9 mph - N/A   Partly Cloudy
7:00 PM 85 °F - 66 °F 43% 29.94 in - East 25.3 mph - -  
7:00 PM 84.2 °F 86.6 °F 66.2 °F 55% 29.92 in 6.2 mi East 24.2 mph - N/A   Partly Cloudy
7:30 PM 84.2 °F 86.6 °F 66.2 °F 55% 29.92 in 6.2 mi East 24.2 mph - N/A   Partly Cloudy
8:00 PM 82 °F - 66 °F 50% 29.94 in 31 mi East 25.3 mph - -   Scattered Clouds
8:00 PM 82.4 °F 84.6 °F 66.2 °F 58% 29.92 in 6.2 mi East 24.2 mph - N/A   Partly Cloudy
8:30 PM 80.6 °F 82.7 °F 66.2 °F 61% 29.95 in 6.2 mi East 21.9 mph - N/A   Partly Cloudy
9:00 PM 80 °F - 67 °F 55% 29.94 in - East 19.6 mph - -  
9:00 PM 78.8 °F - 66.2 °F 65% 29.95 in 6.2 mi East 19.6 mph - N/A   Partly Cloudy
9:30 PM 80.6 °F 82.7 °F 66.2 °F 61% 29.95 in 6.2 mi East 25.3 mph 36.8 mph N/A   Partly Cloudy
10:00 PM 79 °F - 66 °F 56% 29.97 in - East 21.9 mph - -  
10:00 PM 78.8 °F - 66.2 °F 65% 29.95 in 6.2 mi East 23.0 mph - N/A   Partly Cloudy
10:30 PM 78.8 °F - 66.2 °F 65% 29.98 in 6.2 mi ENE 19.6 mph - N/A   Partly Cloudy
11:00 PM 78 °F - 67 °F 60% 30.01 in - ENE 19.6 mph - -  
11:00 PM 78.8 °F - 66.2 °F 65% 30.01 in 6.2 mi ENE 18.4 mph - N/A   Unknown
11:30 PM 77.0 °F - 66.2 °F 69% 30.01 in 6.2 mi ENE 17.3 mph - N/A   Unknown